星链-30765 (STARLINK-30765 )

导读

STARLINK-30765是美国SpaceX公司星链星座的一员,于2023年10月22日发射。作为低轨互联网通信卫星,它运行在近地轨道,依托星链大规模星座组网,为全球用户提供高速宽带互联网服务,尤其覆盖偏远地区。卫星采用霍尔推进系统,设计寿命5-7年,退役后会主动离轨坠入大气层焚毁,减少空间碎片影响,是星链二代组网进程中的组成卫星,支撑全球卫星互联网覆盖能力的扩展。

基本信息
目录编号:
58119
目录名称:
STARLINK-30765
国际标识:
2023-162B
轨道中心:
EARTH
卫星名称:
星链-30765
卫星全名:
星链-30765 (STARLINK-30765 )
卫星状态:
在轨 (已飞行1055 天)
发射日期:
2023-10-22 UTC
国别 :
美国 (US)
星等 :
--
该卫星已列入 空间交会检测服务 Space Conjunction Data Service (SCDS) ,当前飞行风险评估等级: 高风险
轨道信息
数据来源 国际轨道数据 AOE轨道数据
星历时间 2026-09-11T13:18:40+0800
9小时前
查看轨道信息
2026-09-07T00:00:00+0800
4天前
查看轨道信息
半长轴 6861.183km 6861.126km
偏心率 0.0001253 0.0000939
轨道倾角 43.003° 43.000°
近地点辐角 263.891° 289.108°
升交点赤经 164.541° 190.269°
平近点角 96.180° 194.452°
近地点 482.186km 482.344km
远地点 483.906km 483.634km
周期 94.267分钟 94.265分钟
每日圈数 15.275811 15.276004
详细信息
固有亮度:
5
最大亮度:
0.3
卫星平台:
Starlink v2.0 mini
覆盖范围:
全球
运营商:
太空探索技术公司
运营商所在国:
美国
制造商(研发单位):
太空探索技术公司
制造商所在国:
美国
使用方式:
暂无
卫星简介
星链(Starlink)计划是由太空探索技术公司(SpaceX)提出的一个巨型低轨卫星互联网星座项目,计划在2019年至2024年间在太空搭建由约1.2万颗卫星组成的“星链”网络,其中1584颗将部署在地球上空550千米处的近地轨道,并从2020年开始工作。该卫星仍在工作。
2D轨道图
3D轨道图
轨道高度分析图
轨道倾角分析图
轨道综合分析图
查看轨道综合分析图
交会数据列表
事件ID 空间交会对象 最接近时刻(TCA) 交会距离 交会风险概率(CRP) 交会风险指数(CRI) 操作
CDM_260913-060505-811906-401121
2026-09-13T
06:05:27+0000
0.175 km
中距离
7.824154E-4 高风险 0.93
CDM_260913-055004-380405-811921
SUOMI100 (43804)
2026-09-13T
05:50:54+0000
0.923 km
远距离
3.473864E-5 中风险 0.66
CDM_260911-163105-811905-961421
2026-09-11T
16:31:21+0000
0.968 km
远距离
1.899444E-5 中风险 0.61
CDM_260911-145705-811905-961421
2026-09-11T
14:57:11+0000
1.027 km
极远距离
1.551993E-5 中风险 0.59
CDM_260911-180505-811905-961421
2026-09-11T
18:05:30+0000
1.486 km
极远距离
4.421662E-6 低风险 0.48
CDM_260911-132305-811905-961421
2026-09-11T
13:23:02+0000
1.610 km
极远距离
3.438907E-6 低风险 0.46
CDM_260913-184905-811906-385921
2026-09-13T
18:49:00+0000
1.691 km
极远距离
2.199406E-6 低风险 0.42
CDM_260912-033905-811906-429221
2026-09-12T
03:39:19+0000
2.146 km
极远距离
1.691474E-6 低风险 0.4
CDM_260914-001805-811906-385921
2026-09-14T
00:18:32+0000
1.867 km
极远距离
1.681314E-6 低风险 0.4
CDM_260910-121705-811906-217822
2026-09-10T
12:17:02+0000
2.364 km
极远距离
1.652667E-6 低风险 0.39
与全量物体交会距离演化趋势
与全量物体交会风险概率演化趋势